OPS 4682 DEB, 18533

Orbit data source: Space-Track

OPS 4682 DEB, 18533 is space debris in LEO originally from a launch on Sat, 03 Apr 1965 UTC launched from the Air Force Western Test Range (AFWTR). Debris objects in space refer to the collection of defunct objects orbiting the Earth. Examples of debris include non-operational satellites, rocket bodies, and fragments generated from explosions, collisions, or faulty payload assembly.

Loading next visibility...
Identifier
18533, 1965-027AD
Orbit
LEO
Last TLE update
17 hours ago
Origin
Manufacturer
Unknown
Mission
Spacecraft
Bus & Motor
Unknown
Mass
Unknown
Launch date (UTC)
1965-04-03 (60 years ago)
Launch vehicle
Unknown
Launch site
Air Force Western Test Range (AFWTR)
Object type
Payload
Rocket body
Debris
Shape & HBR
Unknown
Radar Cross Section
Small (<0.1 m²)

Expand to show TLE details & history

TLE from 17 hours ago
0 OPS 4682 DEB
1 18533U 65027AD  25181.73269010  .00000211  00000-0  71575-3 0  9997
2 18533  90.2354 358.6852 0024965 332.6238  38.5311 12.95982372848587
Epoch: 2025-06-30T17:35Z
TLE epoch observation values (Epoch: 2025-06-30T17:35:04.424Z)
Latitude
11.28699°
Longitude
175.83175°
Altitude
1,265.059 km
Speed
7.231 km/s
True Right ascension
23h 54m 33s
True Declination
11° 13' 32"
Sunlit
Object was in daylight at epoch
Visualization orbit readout
Latitude
26.78515°
Longitude
175.77532°
Altitude
1,270.396 km
Speed
7.228 km/s
Apparent Right ascension
02h 46m 05s
Apparent Declination
-10° 27' 52"
Sunlit
Object is in daylight
Visualization observer readout
Local Sidereal Time
21:58:49
Azimuth
109.793° ESE
Elevation
6.825°
Doppler factor
1
Orbital elements
Apogee altitude
1,294.108 km
Perigee altitude
1,255.895 km
Semi-major axis
7,653.139 km
Eccentricity
0.0025
Inclination
90.2354°
RAAN
358.6852°
Arg. of periapsis
332.6238°
True anomaly
Unknown
Mean anomaly
38.5311°
Eccentric anomaly
Unknown
Mean motion
3.24178 °/min
Orbital period
111.05 mins
BSTAR
0.00071575
Loading maneuver chart data...
Loading SW <> Apogee altitude chart data...
Loading historical data...
Loading historical data...
Loading historical data...
Loading historical data...
Loading historical data...
Loading historical data...
Loading historical data...

OPS 4682 DEB Visibility forecast

Observer location: undefined°, undefined°

Span
Click to sort rows by Start time (UTC) header in descending order
Start Az.
Max El. time (UTC)
Max El. Az.
Max El.
End time (UTC)
End Az.
7 mins2025-07-01 10:22:23.667Z97.449° ESE2025-07-01 10:26:23.667Z63.337° ENE15.397°2025-07-01 10:29:23.667Z38.446° NE
13 mins2025-07-01 12:09:23.667Z175.686° S2025-07-01 12:15:23.667Z181.472° SSW44.911°2025-07-01 12:22:23.667Z357.443° N
6 mins2025-07-01 14:05:23.667Z266.947° W2025-07-01 14:07:23.667Z284.377° WNW14.666°2025-07-01 14:11:23.667Z317.207° NNW
13 mins2025-07-01 23:47:23.667Z10.019° NNE2025-07-01 23:53:23.667Z75.734° E42.447°2025-07-02 00:00:23.667Z170.986° S
10 mins2025-07-02 01:39:23.667Z329.375° NNW2025-07-02 01:43:23.667Z293.323° NW21.519°2025-07-02 01:49:23.667Z240.83° WSW
|